Torna al catalogo

FENGYUN 1C DEB

AttivoPO
NORAD 30312·DEBRIS·🇨🇳 China

Lanciato May 10, 1999 da Taiyuan Satellite Launch Center

Loading…

Prossimi Passaggi (prossime 24 ore)

TLE

AggiornatoSource: Space-Track

Epoca: Sep 14, 2026, 06:13 UTC

1 30312U 99025ZZ  26257.25955259  .00004895  00000-0  12787-2 0  9991
2 30312  98.8593 354.7497 0011506 110.3722 275.2942 14.49862202 19077

Traccia FENGYUN 1C DEB in tempo reale con AllMySat

Download on the App Store